Time,TemperatureF,DewpointF,PressureIn,WindDirection,WindDirectionDegrees,WindSpeedMPH,WindSpeedGustMPH,Humidity,HourlyPrecipIn,Conditions,Clouds,dailyrainin,SoftwareType,DateUTC
2013-05-21 00:01:00,52.0,52.0,29.63,South,180,2.0,7.0,100,0.00,,,0.00,Rainwise IP-100,2013-05-21 04:01:00,
2013-05-21 00:06:00,51.0,51.0,29.63,South,180,4.0,6.0,100,0.00,,,0.00,Rainwise IP-100,2013-05-21 04:06:00,
2013-05-21 00:11:00,52.0,52.0,29.63,SE,135,3.0,5.0,100,0.00,,,0.00,Rainwise IP-100,2013-05-21 04:11:00,
2013-05-21 00:16:00,51.0,51.0,29.63,SE,135,4.0,7.0,100,0.00,,,0.00,Rainwise IP-100,2013-05-21 04:16:00,
2013-05-21 00:21:00,52.0,52.0,29.63,East,90,3.0,6.0,100,0.00,,,0.00,Rainwise IP-100,2013-05-21 04:21:00,
2013-05-21 00:26:00,51.0,51.0,29.63,East,90,6.0,7.0,100,0.00,,,0.00,Rainwise IP-100,2013-05-21 04:26:00,
2013-05-21 00:31:00,52.0,52.0,29.63,SE,135,5.0,6.0,100,0.00,,,0.00,Rainwise IP-100,2013-05-21 04:31:00,
2013-05-21 00:36:00,51.0,51.0,29.63,South,180,3.0,5.0,100,0.00,,,0.00,Rainwise IP-100,2013-05-21 04:36:00,
2013-05-21 00:41:00,51.0,51.0,29.63,South,180,4.0,6.0,100,0.00,,,0.00,Rainwise IP-100,2013-05-21 04:41:00,
2013-05-21 00:46:00,51.0,51.0,29.63,South,180,0.0,5.0,100,0.00,,,0.00,Rainwise IP-100,2013-05-21 04:46:00,
2013-05-21 00:51:00,51.0,51.0,29.64,South,180,0.0,3.0,100,0.00,,,0.00,Rainwise IP-100,2013-05-21 04:51:00,
2013-05-21 00:56:00,51.0,51.0,29.64,SE,135,0.0,3.0,100,0.00,,,0.00,Rainwise IP-100,2013-05-21 04:56:00,
2013-05-21 01:01:00,51.0,51.0,29.63,SE,135,0.0,1.0,100,0.00,,,0.00,Rainwise IP-100,2013-05-21 05:01:00,
2013-05-21 01:06:00,51.0,51.0,29.63,SE,135,0.0,2.0,100,0.00,,,0.00,Rainwise IP-100,2013-05-21 05:06:00,
2013-05-21 01:11:00,51.0,51.0,29.63,SE,135,2.0,3.0,100,0.00,,,0.00,Rainwise IP-100,2013-05-21 05:11:00,
2013-05-21 01:12:00,51.0,51.0,29.63,SE,135,3.0,3.0,100,0.00,,,0.00,Rainwise IP-100,2013-05-21 05:12:00,
2013-05-21 01:17:00,51.0,51.0,29.63,SE,135,2.0,3.0,100,0.00,,,0.00,Rainwise IP-100,2013-05-21 05:17:00,
2013-05-21 01:22:00,51.0,51.0,29.63,SE,135,0.0,3.0,100,0.00,,,0.00,Rainwise IP-100,2013-05-21 05:22:00,
2013-05-21 01:27:00,51.0,51.0,29.63,East,90,2.0,4.0,100,0.00,,,0.00,Rainwise IP-100,2013-05-21 05:27:00,
2013-05-21 01:32:00,51.0,51.0,29.63,East,90,3.0,5.0,100,0.00,,,0.00,Rainwise IP-100,2013-05-21 05:32:00,
2013-05-21 01:37:00,51.0,51.0,29.63,SE,135,3.0,5.0,100,0.00,,,0.00,Rainwise IP-100,2013-05-21 05:37:00,
2013-05-21 01:42:00,51.0,51.0,29.63,ESE,112,1.0,5.0,100,0.00,,,0.00,Rainwise IP-100,2013-05-21 05:42:00,
2013-05-21 01:47:00,51.0,51.0,29.63,East,90,7.0,7.0,100,0.00,,,0.00,Rainwise IP-100,2013-05-21 05:47:00,
2013-05-21 01:52:00,51.0,51.0,29.62,ESE,112,3.0,7.0,100,0.00,,,0.00,Rainwise IP-100,2013-05-21 05:52:00,
2013-05-21 01:57:00,51.0,51.0,29.62,SE,135,2.0,8.0,100,0.00,,,0.00,Rainwise IP-100,2013-05-21 05:57:00,
2013-05-21 02:02:00,51.0,51.0,29.61,South,180,3.0,7.0,100,0.00,,,0.00,Rainwise IP-100,2013-05-21 06:02:00,
2013-05-21 02:07:00,51.0,51.0,29.61,SW,225,0.0,7.0,100,0.00,,,0.00,Rainwise IP-100,2013-05-21 06:07:00,
2013-05-21 02:12:00,50.0,50.0,29.61,South,180,4.0,6.0,100,0.00,,,0.00,Rainwise IP-100,2013-05-21 06:12:00,
2013-05-21 02:17:00,50.0,50.0,29.61,SE,135,4.0,5.0,100,0.00,,,0.00,Rainwise IP-100,2013-05-21 06:17:00,
2013-05-21 02:22:00,50.0,50.0,29.61,South,180,4.0,6.0,100,0.00,,,0.00,Rainwise IP-100,2013-05-21 06:22:00,
2013-05-21 02:27:00,50.0,50.0,29.61,SSW,202,4.0,5.0,100,0.00,,,0.00,Rainwise IP-100,2013-05-21 06:27:00,
2013-05-21 02:32:00,50.0,50.0,29.61,SSW,202,3.0,6.0,100,0.00,,,0.00,Rainwise IP-100,2013-05-21 06:32:00,
2013-05-21 02:37:00,50.0,50.0,29.61,SSE,157,4.0,5.0,100,0.00,,,0.00,Rainwise IP-100,2013-05-21 06:37:00,
2013-05-21 02:42:00,50.0,50.0,29.61,SSE,157,3.0,5.0,100,0.00,,,0.00,Rainwise IP-100,2013-05-21 06:42:00,
2013-05-21 02:47:00,50.0,50.0,29.61,East,90,0.0,5.0,100,0.00,,,0.00,Rainwise IP-100,2013-05-21 06:47:00,
2013-05-21 02:52:00,50.0,50.0,29.61,ESE,112,2.0,5.0,100,0.00,,,0.00,Rainwise IP-100,2013-05-21 06:52:00,
2013-05-21 02:57:00,50.0,50.0,29.61,SSE,157,0.0,5.0,100,0.00,,,0.00,Rainwise IP-100,2013-05-21 06:57:00,
2013-05-21 03:02:00,50.0,50.0,29.61,SW,225,2.0,2.0,100,0.00,,,0.00,Rainwise IP-100,2013-05-21 07:02:00,
2013-05-21 03:07:00,50.0,50.0,29.61,SW,225,3.0,3.0,100,0.00,,,0.00,Rainwise IP-100,2013-05-21 07:07:00,
2013-05-21 03:12:00,50.0,50.0,29.62,West,270,3.0,4.0,100,0.00,,,0.00,Rainwise IP-100,2013-05-21 07:12:00,
2013-05-21 03:17:00,50.0,50.0,29.62,SSE,157,3.0,4.0,100,0.00,,,0.00,Rainwise IP-100,2013-05-21 07:17:00,
2013-05-21 03:22:00,50.0,50.0,29.61,SSW,202,2.0,3.0,100,0.00,,,0.00,Rainwise IP-100,2013-05-21 07:22:00,
2013-05-21 03:27:00,50.0,50.0,29.61,SSW,202,2.0,3.0,100,0.00,,,0.00,Rainwise IP-100,2013-05-21 07:27:00,
2013-05-21 03:32:00,50.0,50.0,29.62,SSW,202,2.0,4.0,100,0.00,,,0.00,Rainwise IP-100,2013-05-21 07:32:00,
2013-05-21 03:37:00,50.0,50.0,29.62,SSW,202,2.0,2.0,100,0.00,,,0.00,Rainwise IP-100,2013-05-21 07:37:00,
2013-05-21 03:42:00,50.0,50.0,29.61,SSE,157,4.0,4.0,100,0.00,,,0.00,Rainwise IP-100,2013-05-21 07:42:00,
2013-05-21 03:47:00,50.0,50.0,29.61,SSE,157,3.0,5.0,100,0.00,,,0.00,Rainwise IP-100,2013-05-21 07:47:00,
2013-05-21 03:52:00,50.0,50.0,29.61,SSE,157,3.0,4.0,100,0.00,,,0.00,Rainwise IP-100,2013-05-21 07:52:00,
2013-05-21 03:57:00,50.0,50.0,29.61,South,180,2.0,4.0,100,0.00,,,0.00,Rainwise IP-100,2013-05-21 07:57:00,
2013-05-21 04:02:00,50.0,50.0,29.61,SE,135,3.0,4.0,100,0.00,,,0.00,Rainwise IP-100,2013-05-21 08:02:00,
2013-05-21 04:07:00,50.0,50.0,29.61,SE,135,3.0,5.0,100,0.00,,,0.00,Rainwise IP-100,2013-05-21 08:07:00,
2013-05-21 04:12:00,50.0,50.0,29.61,ESE,112,3.0,4.0,100,0.00,,,0.00,Rainwise IP-100,2013-05-21 08:12:00,
2013-05-21 04:17:00,50.0,50.0,29.61,SE,135,3.0,4.0,100,0.00,,,0.00,Rainwise IP-100,2013-05-21 08:17:00,
2013-05-21 04:22:00,50.0,50.0,29.61,SE,135,6.0,6.0,100,0.00,,,0.00,Rainwise IP-100,2013-05-21 08:22:00,
2013-05-21 04:27:00,50.0,50.0,29.61,ESE,112,4.0,7.0,100,0.00,,,0.00,Rainwise IP-100,2013-05-21 08:27:00,
2013-05-21 04:32:00,50.0,50.0,29.61,ESE,112,4.0,6.0,100,0.00,,,0.00,Rainwise IP-100,2013-05-21 08:32:00,
2013-05-21 04:37:00,50.0,50.0,29.61,ESE,112,3.0,6.0,100,0.00,,,0.00,Rainwise IP-100,2013-05-21 08:37:00,
2013-05-21 04:42:00,49.0,49.0,29.60,SW,225,0.0,6.0,100,0.00,,,0.00,Rainwise IP-100,2013-05-21 08:42:00,
2013-05-21 04:47:00,49.0,49.0,29.60,SSE,157,2.0,5.0,100,0.00,,,0.00,Rainwise IP-100,2013-05-21 08:47:00,
2013-05-21 04:52:00,49.0,49.0,29.60,SE,135,3.0,7.0,100,0.00,,,0.00,Rainwise IP-100,2013-05-21 08:52:00,
2013-05-21 04:57:00,49.0,49.0,29.60,SE,135,3.0,7.0,100,0.00,,,0.00,Rainwise IP-100,2013-05-21 08:57:00,
2013-05-21 05:02:00,49.0,49.0,29.60,South,180,5.0,7.0,100,0.00,,,0.00,Rainwise IP-100,2013-05-21 09:02:00,
2013-05-21 05:07:00,49.0,49.0,29.60,East,90,3.0,5.0,100,0.00,,,0.00,Rainwise IP-100,2013-05-21 09:07:00,
2013-05-21 05:12:00,49.0,49.0,29.61,East,90,3.0,4.0,100,0.00,,,0.00,Rainwise IP-100,2013-05-21 09:12:00,
2013-05-21 05:17:00,49.0,49.0,29.61,ESE,112,2.0,4.0,100,0.00,,,0.00,Rainwise IP-100,2013-05-21 09:17:00,
2013-05-21 05:22:00,49.0,49.0,29.61,SE,135,3.0,5.0,100,0.00,,,0.00,Rainwise IP-100,2013-05-21 09:22:00,
2013-05-21 05:27:00,49.0,49.0,29.61,SE,135,1.0,5.0,100,0.00,,,0.00,Rainwise IP-100,2013-05-21 09:27:00,
2013-05-21 05:32:00,48.0,48.0,29.61,SSE,157,6.0,6.0,100,0.00,,,0.00,Rainwise IP-100,2013-05-21 09:32:00,
2013-05-21 05:37:00,48.0,48.0,29.61,SE,135,3.0,6.0,100,0.00,,,0.00,Rainwise IP-100,2013-05-21 09:37:00,
2013-05-21 05:42:00,48.0,48.0,29.61,SSE,157,4.0,5.0,100,0.00,,,0.00,Rainwise IP-100,2013-05-21 09:42:00,
2013-05-21 05:47:00,48.0,48.0,29.61,SE,135,4.0,5.0,100,0.00,,,0.00,Rainwise IP-100,2013-05-21 09:47:00,
2013-05-21 05:52:00,48.0,48.0,29.61,SSE,157,3.0,6.0,100,0.00,,,0.00,Rainwise IP-100,2013-05-21 09:52:00,
2013-05-21 05:57:00,48.0,48.0,29.61,SSE,157,2.0,6.0,100,0.00,,,0.00,Rainwise IP-100,2013-05-21 09:57:00,
2013-05-21 06:02:00,48.0,48.0,29.62,South,180,3.0,5.0,100,0.00,,,0.00,Rainwise IP-100,2013-05-21 10:02:00,
2013-05-21 06:07:00,48.0,48.0,29.62,ESE,112,3.0,5.0,100,0.00,,,0.00,Rainwise IP-100,2013-05-21 10:07:00,
2013-05-21 06:12:00,48.0,48.0,29.62,SE,135,3.0,5.0,100,0.00,,,0.00,Rainwise IP-100,2013-05-21 10:12:00,
2013-05-21 06:17:00,48.0,48.0,29.62,South,180,5.0,5.0,100,0.00,,,0.00,Rainwise IP-100,2013-05-21 10:17:00,
2013-05-21 06:22:00,48.0,48.0,29.61,SE,135,3.0,6.0,100,0.00,,,0.00,Rainwise IP-100,2013-05-21 10:22:00,
2013-05-21 06:27:00,48.0,48.0,29.61,SSE,157,3.0,5.0,100,0.00,,,0.00,Rainwise IP-100,2013-05-21 10:27:00,
2013-05-21 06:32:00,48.0,48.0,29.62,ESE,112,0.0,5.0,100,0.00,,,0.00,Rainwise IP-100,2013-05-21 10:32:00,
2013-05-21 06:37:00,48.0,48.0,29.62,SSE,157,5.0,6.0,100,0.00,,,0.00,Rainwise IP-100,2013-05-21 10:37:00,
2013-05-21 06:42:00,48.0,48.0,29.63,SE,135,4.0,6.0,100,0.00,,,0.00,Rainwise IP-100,2013-05-21 10:42:00,
2013-05-21 06:47:00,48.0,48.0,29.63,South,180,4.0,5.0,100,0.00,,,0.00,Rainwise IP-100,2013-05-21 10:47:00,
2013-05-21 06:52:00,48.0,48.0,29.62,SW,225,2.0,5.0,100,0.00,,,0.00,Rainwise IP-100,2013-05-21 10:52:00,
2013-05-21 06:53:00,48.0,48.0,29.62,SW,225,2.0,6.0,100,0.00,,,0.00,Rainwise IP-100,2013-05-21 10:53:00,
2013-05-21 06:58:00,48.0,48.0,29.62,SSW,202,1.0,6.0,100,0.00,,,0.00,Rainwise IP-100,2013-05-21 10:58:00,
2013-05-21 07:03:00,48.0,48.0,29.63,SSW,202,4.0,5.0,100,0.00,,,0.00,Rainwise IP-100,2013-05-21 11:03:00,
2013-05-21 07:08:00,48.0,48.0,29.63,SE,135,4.0,4.0,100,0.00,,,0.00,Rainwise IP-100,2013-05-21 11:08:00,
2013-05-21 07:13:00,48.0,48.0,29.63,SSE,157,5.0,5.0,100,0.00,,,0.00,Rainwise IP-100,2013-05-21 11:13:00,
2013-05-21 07:18:00,48.0,48.0,29.63,SE,135,7.0,7.0,100,0.00,,,0.00,Rainwise IP-100,2013-05-21 11:18:00,
2013-05-21 07:23:00,48.0,48.0,29.61,SE,135,3.0,7.0,100,0.00,,,0.00,Rainwise IP-100,2013-05-21 11:23:00,
2013-05-21 07:28:00,48.0,48.0,29.61,ESE,112,5.0,10.0,100,0.00,,,0.00,Rainwise IP-100,2013-05-21 11:28:00,
2013-05-21 07:33:00,48.0,48.0,29.61,SE,135,4.0,10.0,100,0.00,,,0.00,Rainwise IP-100,2013-05-21 11:33:00,
2013-05-21 07:38:00,48.0,48.0,29.61,SE,135,6.0,8.0,100,0.00,,,0.00,Rainwise IP-100,2013-05-21 11:38:00,
2013-05-21 07:43:00,48.0,48.0,29.61,ESE,112,6.0,8.0,100,0.00,,,0.00,Rainwise IP-100,2013-05-21 11:43:00,
2013-05-21 07:48:00,49.0,49.0,29.61,SE,135,0.0,8.0,100,0.00,,,0.00,Rainwise IP-100,2013-05-21 11:48:00,
2013-05-21 07:53:00,49.0,49.0,29.62,SE,135,4.0,7.0,100,0.00,,,0.00,Rainwise IP-100,2013-05-21 11:53:00,
2013-05-21 07:58:00,49.0,49.0,29.62,South,180,3.0,8.0,100,0.00,,,0.00,Rainwise IP-100,2013-05-21 11:58:00,
2013-05-21 08:03:00,49.0,49.0,29.62,ESE,112,3.0,8.0,100,0.00,,,0.00,Rainwise IP-100,2013-05-21 12:03:00,
2013-05-21 08:08:00,49.0,49.0,29.62,East,90,4.0,6.0,100,0.00,,,0.00,Rainwise IP-100,2013-05-21 12:08:00,
2013-05-21 08:13:00,48.0,48.0,29.61,SE,135,4.0,6.0,100,0.00,,,0.00,Rainwise IP-100,2013-05-21 12:13:00,
2013-05-21 08:18:00,48.0,48.0,29.61,SSE,157,5.0,9.0,100,0.00,,,0.00,Rainwise IP-100,2013-05-21 12:18:00,
2013-05-21 08:23:00,48.0,48.0,29.62,SSE,157,3.0,7.0,100,0.00,,,0.00,Rainwise IP-100,2013-05-21 12:23:00,
2013-05-21 08:28:00,48.0,48.0,29.62,SE,135,3.0,7.0,100,0.00,,,0.00,Rainwise IP-100,2013-05-21 12:28:00,
2013-05-21 08:33:00,48.0,48.0,29.61,ESE,112,4.0,8.0,100,0.00,,,0.00,Rainwise IP-100,2013-05-21 12:33:00,
2013-05-21 08:38:00,48.0,48.0,29.61,East,90,4.0,8.0,100,0.00,,,0.00,Rainwise IP-100,2013-05-21 12:38:00,
2013-05-21 08:43:00,48.0,48.0,29.62,SE,135,7.0,8.0,100,0.00,,,0.00,Rainwise IP-100,2013-05-21 12:43:00,
2013-05-21 08:48:00,48.0,48.0,29.62,SSW,202,7.0,9.0,100,0.00,,,0.00,Rainwise IP-100,2013-05-21 12:48:00,
2013-05-21 08:53:00,48.0,48.0,29.63,SSE,157,4.0,8.0,100,0.00,,,0.00,Rainwise IP-100,2013-05-21 12:53:00,
2013-05-21 08:58:00,48.0,48.0,29.63,South,180,0.0,8.0,100,0.00,,,0.00,Rainwise IP-100,2013-05-21 12:58:00,
2013-05-21 09:03:00,48.0,48.0,29.64,South,180,4.0,6.0,100,0.00,,,0.00,Rainwise IP-100,2013-05-21 13:03:00,
2013-05-21 09:08:00,48.0,48.0,29.64,ESE,112,5.0,5.0,100,0.00,,,0.00,Rainwise IP-100,2013-05-21 13:08:00,
2013-05-21 09:13:00,48.0,48.0,29.64,SSE,157,4.0,7.0,100,0.06,,,0.01,Rainwise IP-100,2013-05-21 13:13:00,
2013-05-21 09:18:00,48.0,48.0,29.64,East,90,3.0,8.0,100,0.06,,,0.01,Rainwise IP-100,2013-05-21 13:18:00,
2013-05-21 09:23:00,48.0,48.0,29.61,SE,135,4.0,7.0,100,0.06,,,0.02,Rainwise IP-100,2013-05-21 13:23:00,
2013-05-21 09:28:00,48.0,48.0,29.61,South,180,9.0,11.0,100,0.06,,,0.02,Rainwise IP-100,2013-05-21 13:28:00,
2013-05-21 09:33:00,48.0,48.0,29.61,SE,135,2.0,10.0,100,0.00,,,0.02,Rainwise IP-100,2013-05-21 13:33:00,
2013-05-21 09:38:00,48.0,48.0,29.61,SSE,157,5.0,7.0,100,0.00,,,0.02,Rainwise IP-100,2013-05-21 13:38:00,
2013-05-21 09:43:00,48.0,48.0,29.62,ENE,67,3.0,10.0,100,0.00,,,0.02,Rainwise IP-100,2013-05-21 13:43:00,
2013-05-21 09:48:00,48.0,48.0,29.62,ESE,112,3.0,6.0,100,0.00,,,0.02,Rainwise IP-100,2013-05-21 13:48:00,
2013-05-21 09:53:00,48.0,48.0,29.64,East,90,4.0,7.0,100,0.00,,,0.02,Rainwise IP-100,2013-05-21 13:53:00,
2013-05-21 09:58:00,48.0,48.0,29.64,East,90,3.0,6.0,100,0.06,,,0.03,Rainwise IP-100,2013-05-21 13:58:00,
2013-05-21 10:03:00,49.0,49.0,29.65,SE,135,3.0,4.0,100,0.06,,,0.03,Rainwise IP-100,2013-05-21 14:03:00,
2013-05-21 10:08:00,49.0,49.0,29.65,South,180,5.0,5.0,100,0.00,,,0.03,Rainwise IP-100,2013-05-21 14:08:00,
2013-05-21 10:13:00,49.0,49.0,29.63,South,180,7.0,7.0,100,0.00,,,0.03,Rainwise IP-100,2013-05-21 14:13:00,
2013-05-21 10:18:00,49.0,49.0,29.63,SSE,157,4.0,8.0,100,0.00,,,0.03,Rainwise IP-100,2013-05-21 14:18:00,
2013-05-21 10:23:00,49.0,49.0,29.62,SE,135,5.0,8.0,100,0.00,,,0.03,Rainwise IP-100,2013-05-21 14:23:00,
2013-05-21 10:28:00,49.0,49.0,29.62,SSE,157,7.0,7.0,100,0.00,,,0.03,Rainwise IP-100,2013-05-21 14:28:00,
2013-05-21 10:33:00,49.0,49.0,29.62,SSE,157,4.0,8.0,100,0.00,,,0.03,Rainwise IP-100,2013-05-21 14:33:00,
2013-05-21 10:38:00,49.0,49.0,29.62,South,180,4.0,6.0,100,0.06,,,0.04,Rainwise IP-100,2013-05-21 14:38:00,
2013-05-21 10:43:00,49.0,49.0,29.63,South,180,2.0,7.0,100,0.06,,,0.04,Rainwise IP-100,2013-05-21 14:43:00,
2013-05-21 10:48:00,49.0,49.0,29.63,SSE,157,3.0,5.0,100,0.00,,,0.04,Rainwise IP-100,2013-05-21 14:48:00,
2013-05-21 10:53:00,49.0,49.0,29.64,South,180,5.0,6.0,100,0.06,,,0.05,Rainwise IP-100,2013-05-21 14:53:00,
2013-05-21 10:58:00,49.0,49.0,29.64,SW,225,2.0,6.0,100,0.12,,,0.06,Rainwise IP-100,2013-05-21 14:58:00,
2013-05-21 11:03:00,49.0,49.0,29.66,SE,135,0.0,3.0,100,0.12,,,0.07,Rainwise IP-100,2013-05-21 15:03:00,
2013-05-21 11:08:00,49.0,49.0,29.66,SSE,157,5.0,7.0,100,0.12,,,0.08,Rainwise IP-100,2013-05-21 15:08:00,
2013-05-21 11:12:00,49.0,49.0,29.64,SSE,157,4.0,7.0,100,0.12,,,0.09,Rainwise IP-100,2013-05-21 15:12:00,
2013-05-21 11:17:00,49.0,49.0,29.64,South,180,4.0,8.0,100,0.06,,,0.09,Rainwise IP-100,2013-05-21 15:17:00,
2013-05-21 11:20:00,49.0,49.0,29.64,SSE,157,5.0,8.0,100,0.06,,,0.09,Rainwise IP-100,2013-05-21 15:20:00,
2013-05-21 11:21:00,49.0,49.0,29.63,SE,135,2.0,7.0,100,0.00,,,0.09,Rainwise IP-100,2013-05-21 15:21:00,
2013-05-21 11:25:00,49.0,49.0,29.63,SE,135,0.0,7.0,100,0.00,,,0.09,Rainwise IP-100,2013-05-21 15:25:00,
2013-05-21 11:30:00,49.0,49.0,29.63,West,270,1.0,4.0,100,0.00,,,0.09,Rainwise IP-100,2013-05-21 15:30:00,
2013-05-21 11:35:00,49.0,49.0,29.67,SE,135,3.0,3.0,100,0.12,,,0.11,Rainwise IP-100,2013-05-21 15:35:00,
2013-05-21 11:40:00,49.0,49.0,29.67,East,90,4.0,5.0,100,0.18,,,0.12,Rainwise IP-100,2013-05-21 15:40:00,
2013-05-21 11:45:00,49.0,49.0,29.66,East,90,5.0,5.0,100,0.12,,,0.13,Rainwise IP-100,2013-05-21 15:45:00,
2013-05-21 11:50:00,49.0,49.0,29.66,East,90,5.0,6.0,100,0.06,,,0.13,Rainwise IP-100,2013-05-21 15:50:00,
2013-05-21 11:55:00,49.0,49.0,29.66,ENE,67,0.0,8.0,100,0.06,,,0.14,Rainwise IP-100,2013-05-21 15:55:00,
2013-05-21 12:00:00,49.0,49.0,29.66,ESE,112,3.0,5.0,100,0.06,,,0.14,Rainwise IP-100,2013-05-21 16:00:00,
2013-05-21 12:05:00,49.0,49.0,29.67,East,90,0.0,5.0,100,0.06,,,0.15,Rainwise IP-100,2013-05-21 16:05:00,
2013-05-21 12:10:00,49.0,49.0,29.67,SE,135,3.0,6.0,100,0.12,,,0.16,Rainwise IP-100,2013-05-21 16:10:00,
2013-05-21 12:15:00,49.0,49.0,29.67,ESE,112,4.0,7.0,100,0.12,,,0.17,Rainwise IP-100,2013-05-21 16:15:00,
2013-05-21 12:20:00,49.0,49.0,29.67,East,90,0.0,7.0,100,0.12,,,0.18,Rainwise IP-100,2013-05-21 16:20:00,
2013-05-21 12:25:00,49.0,49.0,29.67,East,90,3.0,7.0,100,0.06,,,0.18,Rainwise IP-100,2013-05-21 16:25:00,
2013-05-21 12:30:00,50.0,50.0,29.67,SE,135,2.0,7.0,100,0.00,,,0.18,Rainwise IP-100,2013-05-21 16:30:00,
2013-05-21 12:35:00,50.0,50.0,29.67,SE,135,2.0,3.0,100,0.00,,,0.18,Rainwise IP-100,2013-05-21 16:35:00,
2013-05-21 12:40:00,50.0,50.0,29.66,NE,45,3.0,7.0,100,0.06,,,0.19,Rainwise IP-100,2013-05-21 16:40:00,
2013-05-21 12:45:00,50.0,50.0,29.66,ESE,112,3.0,6.0,100,0.06,,,0.19,Rainwise IP-100,2013-05-21 16:45:00,
2013-05-21 12:50:00,49.0,49.0,29.66,ESE,112,7.0,9.0,100,0.00,,,0.19,Rainwise IP-100,2013-05-21 16:50:00,
2013-05-21 12:55:00,49.0,49.0,29.66,East,90,9.0,10.0,100,0.00,,,0.19,Rainwise IP-100,2013-05-21 16:55:00,
2013-05-21 13:00:00,49.0,49.0,29.66,SSE,157,2.0,10.0,100,0.00,,,0.19,Rainwise IP-100,2013-05-21 17:00:00,
2013-05-21 13:05:00,50.0,50.0,29.65,East,90,4.0,8.0,100,0.00,,,0.19,Rainwise IP-100,2013-05-21 17:05:00,
2013-05-21 13:10:00,50.0,50.0,29.65,South,180,0.0,5.0,100,0.00,,,0.19,Rainwise IP-100,2013-05-21 17:10:00,
2013-05-21 13:15:00,50.0,50.0,29.65,SE,135,1.0,7.0,100,0.00,,,0.19,Rainwise IP-100,2013-05-21 17:15:00,
2013-05-21 13:20:00,50.0,50.0,29.65,SE,135,1.0,5.0,100,0.00,,,0.19,Rainwise IP-100,2013-05-21 17:20:00,
2013-05-21 13:25:00,50.0,50.0,29.65,SE,135,4.0,6.0,100,0.00,,,0.19,Rainwise IP-100,2013-05-21 17:25:00,
2013-05-21 13:30:00,50.0,50.0,29.65,SE,135,5.0,8.0,100,0.00,,,0.19,Rainwise IP-100,2013-05-21 17:30:00,
2013-05-21 13:35:00,50.0,50.0,29.65,East,90,3.0,10.0,100,0.00,,,0.19,Rainwise IP-100,2013-05-21 17:35:00,
2013-05-21 13:40:00,50.0,50.0,29.65,East,90,7.0,7.0,100,0.00,,,0.19,Rainwise IP-100,2013-05-21 17:40:00,
2013-05-21 13:45:00,50.0,50.0,29.65,NE,45,3.0,7.0,100,0.00,,,0.19,Rainwise IP-100,2013-05-21 17:45:00,
2013-05-21 13:50:00,50.0,50.0,29.65,East,90,8.0,8.0,100,0.00,,,0.19,Rainwise IP-100,2013-05-21 17:50:00,
2013-05-21 13:55:00,50.0,50.0,29.65,East,90,3.0,10.0,100,0.00,,,0.19,Rainwise IP-100,2013-05-21 17:55:00,
2013-05-21 14:00:00,50.0,50.0,29.65,ESE,112,5.0,8.0,100,0.00,,,0.19,Rainwise IP-100,2013-05-21 18:00:00,
2013-05-21 14:05:00,50.0,50.0,29.65,NE,45,3.0,8.0,100,0.00,,,0.19,Rainwise IP-100,2013-05-21 18:05:00,
2013-05-21 14:10:00,50.0,50.0,29.65,ESE,112,5.0,9.0,100,0.00,,,0.19,Rainwise IP-100,2013-05-21 18:10:00,
2013-05-21 14:15:00,50.0,50.0,29.65,East,90,6.0,8.0,100,0.00,,,0.19,Rainwise IP-100,2013-05-21 18:15:00,
2013-05-21 14:20:00,50.0,50.0,29.65,ENE,67,4.0,8.0,100,0.00,,,0.19,Rainwise IP-100,2013-05-21 18:20:00,
2013-05-21 14:25:00,50.0,50.0,29.65,East,90,6.0,8.0,100,0.00,,,0.19,Rainwise IP-100,2013-05-21 18:25:00,
2013-05-21 14:30:00,50.0,50.0,29.65,ESE,112,1.0,8.0,100,0.00,,,0.19,Rainwise IP-100,2013-05-21 18:30:00,
2013-05-21 14:35:00,50.0,50.0,29.65,East,90,1.0,7.0,100,0.00,,,0.19,Rainwise IP-100,2013-05-21 18:35:00,
2013-05-21 14:40:00,50.0,50.0,29.65,SSE,157,3.0,5.0,100,0.00,,,0.19,Rainwise IP-100,2013-05-21 18:40:00,
2013-05-21 14:45:00,50.0,50.0,29.66,SE,135,5.0,7.0,100,0.00,,,0.19,Rainwise IP-100,2013-05-21 18:45:00,
2013-05-21 14:50:00,50.0,50.0,29.66,SE,135,2.0,7.0,100,0.00,,,0.19,Rainwise IP-100,2013-05-21 18:50:00,
2013-05-21 14:55:00,50.0,50.0,29.66,East,90,4.0,6.0,100,0.00,,,0.19,Rainwise IP-100,2013-05-21 18:55:00,
2013-05-21 15:00:00,50.0,50.0,29.66,SE,135,4.0,6.0,100,0.00,,,0.19,Rainwise IP-100,2013-05-21 19:00:00,
2013-05-21 15:05:00,50.0,50.0,29.66,ESE,112,0.0,6.0,100,0.00,,,0.19,Rainwise IP-100,2013-05-21 19:05:00,
2013-05-21 15:10:00,50.0,50.0,29.66,North,360,1.0,4.0,100,0.00,,,0.19,Rainwise IP-100,2013-05-21 19:10:00,
2013-05-21 15:15:00,50.0,50.0,29.67,SE,135,4.0,8.0,100,0.00,,,0.19,Rainwise IP-100,2013-05-21 19:15:00,
2013-05-21 15:20:00,50.0,50.0,29.67,North,360,2.0,7.0,100,0.00,,,0.19,Rainwise IP-100,2013-05-21 19:20:00,
2013-05-21 15:25:00,50.0,50.0,29.67,ESE,112,6.0,9.0,100,0.00,,,0.19,Rainwise IP-100,2013-05-21 19:25:00,
2013-05-21 15:30:00,50.0,50.0,29.67,ESE,112,4.0,9.0,100,0.00,,,0.19,Rainwise IP-100,2013-05-21 19:30:00,
2013-05-21 15:35:00,50.0,50.0,29.66,East,90,6.0,9.0,100,0.00,,,0.19,Rainwise IP-100,2013-05-21 19:35:00,
2013-05-21 15:40:00,50.0,50.0,29.66,SE,135,3.0,11.0,100,0.00,,,0.19,Rainwise IP-100,2013-05-21 19:40:00,
2013-05-21 15:45:00,50.0,50.0,29.66,SE,135,4.0,8.0,100,0.00,,,0.19,Rainwise IP-100,2013-05-21 19:45:00,
2013-05-21 15:50:00,50.0,50.0,29.66,ESE,112,1.0,7.0,100,0.00,,,0.19,Rainwise IP-100,2013-05-21 19:50:00,
2013-05-21 15:55:00,50.0,50.0,29.66,SE,135,4.0,10.0,100,0.00,,,0.19,Rainwise IP-100,2013-05-21 19:55:00,
2013-05-21 16:00:00,50.0,50.0,29.66,SSE,157,8.0,9.0,100,0.00,,,0.19,Rainwise IP-100,2013-05-21 20:00:00,
2013-05-21 16:05:00,50.0,50.0,29.65,East,90,2.0,9.0,100,0.00,,,0.19,Rainwise IP-100,2013-05-21 20:05:00,
2013-05-21 16:10:00,50.0,50.0,29.65,SE,135,6.0,8.0,100,0.00,,,0.19,Rainwise IP-100,2013-05-21 20:10:00,
2013-05-21 16:15:00,50.0,50.0,29.66,East,90,4.0,9.0,100,0.00,,,0.19,Rainwise IP-100,2013-05-21 20:15:00,
2013-05-21 16:20:00,50.0,50.0,29.66,ESE,112,3.0,8.0,100,0.00,,,0.19,Rainwise IP-100,2013-05-21 20:20:00,
2013-05-21 16:25:00,50.0,50.0,29.65,North,360,1.0,8.0,100,0.00,,,0.19,Rainwise IP-100,2013-05-21 20:25:00,
2013-05-21 16:30:00,50.0,50.0,29.65,ESE,112,5.0,7.0,100,0.00,,,0.19,Rainwise IP-100,2013-05-21 20:30:00,
2013-05-21 16:35:00,50.0,50.0,29.65,SE,135,4.0,9.0,100,0.00,,,0.19,Rainwise IP-100,2013-05-21 20:35:00,
2013-05-21 16:40:00,50.0,50.0,29.65,SE,135,5.0,8.0,100,0.00,,,0.19,Rainwise IP-100,2013-05-21 20:40:00,
2013-05-21 16:45:00,50.0,50.0,29.65,East,90,4.0,10.0,100,0.00,,,0.19,Rainwise IP-100,2013-05-21 20:45:00,
2013-05-21 16:50:00,50.0,50.0,29.65,East,90,2.0,8.0,100,0.00,,,0.19,Rainwise IP-100,2013-05-21 20:50:00,
2013-05-21 16:55:00,50.0,50.0,29.65,East,90,2.0,6.0,100,0.00,,,0.19,Rainwise IP-100,2013-05-21 20:55:00,
2013-05-21 17:00:00,50.0,50.0,29.65,SE,135,4.0,5.0,100,0.00,,,0.19,Rainwise IP-100,2013-05-21 21:00:00,
2013-05-21 17:05:00,50.0,50.0,29.65,SE,135,4.0,5.0,100,0.00,,,0.19,Rainwise IP-100,2013-05-21 21:05:00,
2013-05-21 17:10:00,50.0,50.0,29.64,SE,135,5.0,10.0,100,0.00,,,0.19,Rainwise IP-100,2013-05-21 21:10:00,
2013-05-21 17:15:00,50.0,50.0,29.64,SE,135,5.0,7.0,100,0.00,,,0.19,Rainwise IP-100,2013-05-21 21:15:00,
2013-05-21 17:20:00,50.0,50.0,29.64,SE,135,5.0,10.0,100,0.00,,,0.19,Rainwise IP-100,2013-05-21 21:20:00,
2013-05-21 17:25:00,50.0,50.0,29.63,ESE,112,4.0,10.0,100,0.00,,,0.19,Rainwise IP-100,2013-05-21 21:25:00,
2013-05-21 17:30:00,50.0,50.0,29.63,SSE,157,7.0,9.0,100,0.00,,,0.19,Rainwise IP-100,2013-05-21 21:30:00,
2013-05-21 17:35:00,50.0,50.0,29.64,South,180,4.0,8.0,100,0.00,,,0.19,Rainwise IP-100,2013-05-21 21:35:00,
2013-05-21 17:40:00,50.0,50.0,29.64,SE,135,4.0,8.0,100,0.00,,,0.19,Rainwise IP-100,2013-05-21 21:40:00,
2013-05-21 17:45:00,50.0,50.0,29.64,SE,135,2.0,6.0,100,0.00,,,0.19,Rainwise IP-100,2013-05-21 21:45:00,
2013-05-21 17:50:00,50.0,50.0,29.64,SE,135,3.0,5.0,100,0.00,,,0.19,Rainwise IP-100,2013-05-21 21:50:00,
2013-05-21 17:55:00,50.0,50.0,29.63,SSE,157,1.0,4.0,100,0.00,,,0.19,Rainwise IP-100,2013-05-21 21:55:00,
2013-05-21 18:00:00,50.0,50.0,29.63,SSE,157,4.0,5.0,100,0.00,,,0.19,Rainwise IP-100,2013-05-21 22:00:00,
2013-05-21 18:05:00,50.0,50.0,29.64,South,180,3.0,6.0,100,0.00,,,0.19,Rainwise IP-100,2013-05-21 22:05:00,
2013-05-21 18:10:00,50.0,50.0,29.64,SE,135,4.0,7.0,100,0.00,,,0.19,Rainwise IP-100,2013-05-21 22:10:00,
2013-05-21 18:15:00,50.0,50.0,29.64,SSW,202,6.0,6.0,100,0.00,,,0.19,Rainwise IP-100,2013-05-21 22:15:00,
2013-05-21 18:20:00,50.0,50.0,29.64,SSW,202,6.0,7.0,100,0.00,,,0.19,Rainwise IP-100,2013-05-21 22:20:00,
2013-05-21 18:25:00,50.0,50.0,29.63,NE,45,6.0,8.0,100,0.00,,,0.19,Rainwise IP-100,2013-05-21 22:25:00,
2013-05-21 18:30:00,50.0,50.0,29.63,East,90,5.0,7.0,100,0.00,,,0.19,Rainwise IP-100,2013-05-21 22:30:00,
2013-05-21 18:35:00,50.0,50.0,29.64,East,90,4.0,7.0,100,0.00,,,0.19,Rainwise IP-100,2013-05-21 22:35:00,
2013-05-21 18:40:00,49.0,49.0,29.64,SE,135,2.0,6.0,100,0.00,,,0.19,Rainwise IP-100,2013-05-21 22:40:00,
2013-05-21 18:45:00,49.0,49.0,29.65,NE,45,4.0,5.0,100,0.00,,,0.19,Rainwise IP-100,2013-05-21 22:45:00,
2013-05-21 18:50:00,49.0,49.0,29.65,East,90,3.0,5.0,100,0.00,,,0.19,Rainwise IP-100,2013-05-21 22:50:00,
2013-05-21 18:55:00,49.0,49.0,29.65,East,90,4.0,4.0,100,0.00,,,0.19,Rainwise IP-100,2013-05-21 22:55:00,
2013-05-21 19:00:00,49.0,49.0,29.65,NE,45,3.0,6.0,100,0.00,,,0.19,Rainwise IP-100,2013-05-21 23:00:00,
2013-05-21 19:05:00,49.0,49.0,29.66,ENE,67,4.0,7.0,99,0.00,,,0.19,Rainwise IP-100,2013-05-21 23:05:00,
2013-05-21 19:10:00,49.0,48.0,29.66,East,90,3.0,7.0,98,0.00,,,0.19,Rainwise IP-100,2013-05-21 23:10:00,
2013-05-21 19:15:00,49.0,49.0,29.67,East,90,2.0,5.0,99,0.00,,,0.19,Rainwise IP-100,2013-05-21 23:15:00,
2013-05-21 19:20:00,49.0,49.0,29.67,ENE,67,3.0,5.0,99,0.00,,,0.19,Rainwise IP-100,2013-05-21 23:20:00,
2013-05-21 19:25:00,49.0,49.0,29.67,ENE,67,0.0,4.0,99,0.00,,,0.19,Rainwise IP-100,2013-05-21 23:25:00,
2013-05-21 19:30:00,49.0,49.0,29.67,East,90,0.0,1.0,99,0.00,,,0.19,Rainwise IP-100,2013-05-21 23:30:00,
2013-05-21 19:35:00,49.0,49.0,29.67,SE,135,1.0,2.0,99,0.00,,,0.19,Rainwise IP-100,2013-05-21 23:35:00,
2013-05-21 19:40:00,49.0,49.0,29.67,SE,135,1.0,2.0,99,0.00,,,0.19,Rainwise IP-100,2013-05-21 23:40:00,
2013-05-21 19:45:00,49.0,49.0,29.66,SE,135,0.0,2.0,99,0.00,,,0.19,Rainwise IP-100,2013-05-21 23:45:00,
2013-05-21 19:50:00,49.0,49.0,29.66,SE,135,1.0,2.0,99,0.00,,,0.19,Rainwise IP-100,2013-05-21 23:50:00,
2013-05-21 19:55:00,49.0,49.0,29.66,SE,135,0.0,1.0,99,0.00,,,0.19,Rainwise IP-100,2013-05-21 23:55:00,
2013-05-21 20:00:00,48.0,48.0,29.66,SE,135,0.0,0.0,99,0.00,,,0.19,Rainwise IP-100,2013-05-22 00:00:00,
2013-05-21 20:05:00,49.0,49.0,29.67,SE,135,0.0,0.0,99,0.00,,,0.19,Rainwise IP-100,2013-05-22 00:05:00,
2013-05-21 20:10:00,49.0,49.0,29.67,SE,135,3.0,5.0,99,0.00,,,0.19,Rainwise IP-100,2013-05-22 00:10:00,
2013-05-21 20:15:00,49.0,49.0,29.67,East,90,5.0,8.0,99,0.00,,,0.19,Rainwise IP-100,2013-05-22 00:15:00,
2013-05-21 20:20:00,49.0,49.0,29.67,SE,135,1.0,8.0,99,0.00,,,0.19,Rainwise IP-100,2013-05-22 00:20:00,
2013-05-21 20:25:00,49.0,49.0,29.67,SE,135,3.0,4.0,99,0.00,,,0.19,Rainwise IP-100,2013-05-22 00:25:00,
2013-05-21 20:30:00,49.0,49.0,29.67,SSE,157,2.0,5.0,99,0.00,,,0.19,Rainwise IP-100,2013-05-22 00:30:00,
2013-05-21 20:35:00,49.0,49.0,29.66,SSE,157,0.0,5.0,99,0.00,,,0.19,Rainwise IP-100,2013-05-22 00:35:00,
2013-05-21 20:40:00,49.0,49.0,29.66,SSE,157,1.0,4.0,99,0.00,,,0.19,Rainwise IP-100,2013-05-22 00:40:00,
2013-05-21 20:45:00,49.0,49.0,29.66,SSE,157,3.0,4.0,99,0.00,,,0.19,Rainwise IP-100,2013-05-22 00:45:00,
2013-05-21 20:50:00,48.0,48.0,29.66,SE,135,1.0,4.0,99,0.00,,,0.19,Rainwise IP-100,2013-05-22 00:50:00,
2013-05-21 20:55:00,48.0,48.0,29.67,SE,135,2.0,4.0,99,0.00,,,0.19,Rainwise IP-100,2013-05-22 00:55:00,
2013-05-21 21:00:00,48.0,48.0,29.67,SE,135,2.0,3.0,100,0.00,,,0.19,Rainwise IP-100,2013-05-22 01:00:00,
2013-05-21 21:05:00,48.0,48.0,29.67,SE,135,1.0,4.0,100,0.00,,,0.19,Rainwise IP-100,2013-05-22 01:05:00,
2013-05-21 21:10:00,48.0,48.0,29.67,SE,135,2.0,3.0,100,0.00,,,0.19,Rainwise IP-100,2013-05-22 01:10:00,
2013-05-21 21:15:00,48.0,48.0,29.68,SE,135,1.0,3.0,100,0.00,,,0.19,Rainwise IP-100,2013-05-22 01:15:00,
2013-05-21 21:20:00,48.0,48.0,29.68,East,90,1.0,5.0,100,0.00,,,0.19,Rainwise IP-100,2013-05-22 01:20:00,
2013-05-21 21:25:00,48.0,48.0,29.67,SE,135,4.0,5.0,100,0.00,,,0.19,Rainwise IP-100,2013-05-22 01:25:00,
2013-05-21 21:30:00,49.0,49.0,29.67,East,90,1.0,6.0,100,0.00,,,0.19,Rainwise IP-100,2013-05-22 01:30:00,
2013-05-21 21:35:00,49.0,49.0,29.68,ESE,112,2.0,5.0,100,0.00,,,0.19,Rainwise IP-100,2013-05-22 01:35:00,
2013-05-21 21:40:00,49.0,49.0,29.68,East,90,3.0,6.0,100,0.00,,,0.19,Rainwise IP-100,2013-05-22 01:40:00,
2013-05-21 21:45:00,49.0,49.0,29.68,ESE,112,4.0,5.0,100,0.00,,,0.19,Rainwise IP-100,2013-05-22 01:45:00,
2013-05-21 21:50:00,48.0,48.0,29.68,ESE,112,4.0,6.0,100,0.00,,,0.19,Rainwise IP-100,2013-05-22 01:50:00,
2013-05-21 21:55:00,48.0,48.0,29.66,East,90,6.0,6.0,100,0.00,,,0.19,Rainwise IP-100,2013-05-22 01:55:00,
2013-05-21 22:00:00,48.0,48.0,29.66,ESE,112,6.0,8.0,100,0.00,,,0.19,Rainwise IP-100,2013-05-22 02:00:00,
2013-05-21 22:05:00,48.0,48.0,29.66,SSE,157,5.0,7.0,100,0.00,,,0.19,Rainwise IP-100,2013-05-22 02:05:00,
2013-05-21 22:10:00,48.0,48.0,29.66,ESE,112,5.0,8.0,100,0.00,,,0.19,Rainwise IP-100,2013-05-22 02:10:00,
2013-05-21 22:15:00,48.0,48.0,29.65,SE,135,4.0,8.0,100,0.00,,,0.19,Rainwise IP-100,2013-05-22 02:15:00,
2013-05-21 22:20:00,48.0,48.0,29.65,SE,135,3.0,8.0,100,0.00,,,0.19,Rainwise IP-100,2013-05-22 02:20:00,
2013-05-21 22:25:00,48.0,48.0,29.65,ESE,112,2.0,9.0,100,0.00,,,0.19,Rainwise IP-100,2013-05-22 02:25:00,
2013-05-21 22:30:00,48.0,48.0,29.65,East,90,4.0,6.0,100,0.00,,,0.19,Rainwise IP-100,2013-05-22 02:30:00,
2013-05-21 22:35:00,48.0,48.0,29.65,East,90,5.0,6.0,100,0.00,,,0.19,Rainwise IP-100,2013-05-22 02:35:00,
2013-05-21 22:40:00,48.0,48.0,29.65,East,90,3.0,6.0,100,0.00,,,0.19,Rainwise IP-100,2013-05-22 02:40:00,
2013-05-21 22:45:00,48.0,48.0,29.67,East,90,4.0,5.0,100,0.00,,,0.19,Rainwise IP-100,2013-05-22 02:45:00,
2013-05-21 22:50:00,48.0,48.0,29.67,East,90,3.0,4.0,100,0.00,,,0.19,Rainwise IP-100,2013-05-22 02:50:00,
2013-05-21 22:55:00,48.0,48.0,29.65,East,90,2.0,5.0,100,0.00,,,0.19,Rainwise IP-100,2013-05-22 02:55:00,
2013-05-21 23:00:00,48.0,48.0,29.65,ESE,112,2.0,8.0,100,0.00,,,0.19,Rainwise IP-100,2013-05-22 03:00:00,
2013-05-21 23:05:00,48.0,48.0,29.65,ESE,112,5.0,8.0,100,0.00,,,0.19,Rainwise IP-100,2013-05-22 03:05:00,
2013-05-21 23:10:00,48.0,48.0,29.65,East,90,6.0,7.0,100,0.00,,,0.19,Rainwise IP-100,2013-05-22 03:10:00,
2013-05-21 23:15:00,48.0,48.0,29.64,SE,135,3.0,7.0,100,0.00,,,0.19,Rainwise IP-100,2013-05-22 03:15:00,
2013-05-21 23:20:00,48.0,48.0,29.64,ESE,112,6.0,7.0,100,0.00,,,0.19,Rainwise IP-100,2013-05-22 03:20:00,
2013-05-21 23:25:00,48.0,48.0,29.63,SE,135,3.0,7.0,100,0.00,,,0.19,Rainwise IP-100,2013-05-22 03:25:00,
2013-05-21 23:30:00,49.0,49.0,29.63,SE,135,2.0,7.0,100,0.00,,,0.19,Rainwise IP-100,2013-05-22 03:30:00,
2013-05-21 23:35:00,49.0,49.0,29.63,SE,135,3.0,5.0,100,0.00,,,0.19,Rainwise IP-100,2013-05-22 03:35:00,
2013-05-21 23:40:00,49.0,49.0,29.63,SE,135,3.0,6.0,100,0.00,,,0.19,Rainwise IP-100,2013-05-22 03:40:00,
2013-05-21 23:45:00,49.0,49.0,29.63,ESE,112,4.0,8.0,100,0.00,,,0.19,Rainwise IP-100,2013-05-22 03:45:00,
2013-05-21 23:50:00,48.0,48.0,29.63,East,90,0.0,6.0,100,0.00,,,0.19,Rainwise IP-100,2013-05-22 03:50:00,
2013-05-21 23:55:00,48.0,48.0,29.65,East,90,0.0,1.0,100,0.00,,,0.19,Rainwise IP-100,2013-05-22 03:55:00,